QPF
0.00 0.00 0.00 0.00 0.00 0.00 0.00 0.00 0.00 0.01 0.01 0.01 0.00 0.00 0.00 0.01 0.02 0.02 0.03 0.04 0.04 0.07 0.08 0.07 0.09 0.10 0.13 0.15 0.14 0.15 0.17 0.15 0.13 0.13 0.12 0.09 0.08 0.09 0.11 0.09 0.05 0.05 0.04 0.03
0.00 0.00 0.00 0.00 0.00 0.00 0.00 0.00 0.00 0.00 0.00 0.01 0.01 0.01 0.01 0.02 0.02 0.02 0.02 0.03 0.03 0.06 0.09 0.10 0.11 0.13 0.16 0.17 0.16 0.15 0.18 0.18 0.12 0.10 0.09 0.08 0.07 0.06 0.09 0.10 0.06 0.03 0.02 0.02
0.00 0.00 0.00 0.00 0.00 0.00 0.00 0.00 0.00 0.00 0.00 0.01 0.01 0.02 0.02 0.02 0.02 0.03 0.03 0.04 0.05 0.07 0.07 0.09 0.10 0.10 0.12 0.14 0.15 0.14 0.16 0.19 0.18 0.15 0.11 0.08 0.09 0.08 0.08 0.08 0.07 0.04 0.03 0.02
0.00 0.00 0.00 0.00 0.00 0.00 0.00 0.00 0.00 0.00 0.00 0.01 0.01 0.02 0.03 0.03 0.03 0.04 0.03 0.02 0.03 0.04 0.06 0.07 0.05 0.06 0.11 0.11 0.12 0.13 0.13 0.13 0.14 0.13 0.10 0.06 0.05 0.05 0.05 0.04 0.03 0.04 0.04 0.03
0.00 0.00 0.00 0.00 0.00 0.00 0.00 0.00 0.00 0.00 0.01 0.01 0.00 0.01 0.03 0.03 0.03 0.03 0.03 0.02 0.03 0.04 0.06 0.05 0.04 0.05 0.08 0.11 0.11 0.11 0.11 0.11 0.09 0.07 0.07 0.07 0.06 0.04 0.04 0.04 0.03 0.03 0.04 0.03
0.00 0.00 0.00 0.00 0.00 0.00 0.00 0.00 0.00 0.01 0.00 0.00 0.00 0.01 0.01 0.02 0.02 0.03 0.03 0.03 0.03 0.03 0.04 0.04 0.04 0.09 0.08 0.08 0.10 0.10 0.11 0.10 0.08 0.07 0.07 0.06 0.05 0.04 0.04 0.03 0.03 0.03 0.03 0.03
0.00 0.00 0.00 0.00 0.00 0.00 0.00 0.00 0.00 0.01 0.01 0.01 0.01 0.01 0.02 0.03 0.02 0.02 0.04 0.04 0.04 0.03 0.03 0.02 0.02 0.03 0.06 0.06 0.07 0.09 0.11 0.09 0.08 0.05 0.04 0.04 0.05 0.05 0.05 0.04 0.04 0.03 0.03 0.02
0.00 0.00 0.00 0.00 0.00 0.00 0.00 0.00 0.00 0.01 0.01 0.02 0.03 0.03 0.07 0.07 0.03 0.03 0.05 0.05 0.04 0.04 0.03 0.02 0.02 0.02 0.03 0.04 0.04 0.05 0.07 0.08 0.07 0.05 0.03 0.04 0.04 0.04 0.05 0.04 0.03 0.03 0.02 0.02
0.00 0.00 0.00 0.00 0.00 0.00 0.00 0.00 0.00 0.00 0.01 0.04 0.06 0.07 0.10 0.09 0.06 0.07 0.10 0.07 0.04 0.03 0.02 0.02 0.02 0.02 0.02 0.03 0.04 0.03 0.05 0.08 0.09 0.09 0.08 0.08 0.07 0.04 0.04 0.04 0.05 0.04 0.03 0.02
0.00 0.00 0.00 0.00 0.00 0.00 0.00 0.00 0.00 0.00 0.02 0.06 0.08 0.08 0.10 0.13 0.08 0.06 0.07 0.05 0.04 0.03 0.02 0.03 0.02 0.01 0.01 0.02 0.03 0.04 0.06 0.09 0.11 0.13 0.13 0.10 0.10 0.08 0.07 0.06 0.05 0.05 0.05 0.04
0.01 0.01 0.01 0.00 0.00 0.00 0.00 0.00 0.00 0.01 0.01 0.04 0.07 0.08 0.11 0.11 0.08 0.06 0.06 0.04 0.04 0.02 0.02 0.03 0.02 0.01 0.01 0.02 0.02 0.03 0.05 0.07 0.08 0.08 0.11 0.12 0.12 0.12 0.10 0.09 0.07 0.06 0.06 0.05
0.01 0.01 0.01 0.00 0.00 0.00 0.00 0.01 0.00 0.00 0.01 0.02 0.05 0.05 0.06 0.05 0.07 0.09 0.10 0.05 0.04 0.04 0.04 0.04 0.03 0.03 0.03 0.03 0.03 0.04 0.04 0.04 0.05 0.07 0.09 0.13 0.13 0.13 0.12 0.10 0.09 0.08 0.08 0.08
0.00 0.00 0.00 0.01 0.01 0.01 0.01 0.00 0.01 0.01 0.01 0.02 0.04 0.04 0.04 0.05 0.08 0.12 0.12 0.07 0.06 0.07 0.06 0.08 0.05 0.03 0.03 0.03 0.03 0.03 0.03 0.03 0.05 0.06 0.09 0.11 0.11 0.12 0.11 0.09 0.08 0.07 0.07 0.08
0.00 0.00 0.00 0.01 0.02 0.02 0.01 0.01 0.01 0.03 0.02 0.02 0.03 0.02 0.04 0.05 0.07 0.12 0.16 0.12 0.08 0.07 0.06 0.08 0.11 0.05 0.02 0.02 0.02 0.02 0.02 0.03 0.04 0.06 0.07 0.07 0.09 0.09 0.09 0.09 0.08 0.06 0.05 0.07
0.01 0.01 0.01 0.01 0.02 0.02 0.01 0.01 0.01 0.02 0.02 0.01 0.02 0.02 0.05 0.05 0.06 0.07 0.10 0.12 0.09 0.05 0.04 0.04 0.06 0.07 0.06 0.04 0.03 0.02 0.02 0.03 0.03 0.05 0.06 0.06 0.07 0.08 0.09 0.09 0.08 0.07 0.06 0.06
0.01 0.02 0.03 0.03 0.02 0.01 0.01 0.01 0.01 0.01 0.01 0.01 0.02 0.02 0.05 0.08 0.06 0.06 0.07 0.06 0.04 0.03 0.03 0.03 0.04 0.03 0.03 0.04 0.04 0.05 0.04 0.03 0.04 0.05 0.06 0.06 0.07 0.07 0.06 0.08 0.08 0.07 0.06 0.07
0.02 0.02 0.03 0.04 0.02 0.02 0.01 0.01 0.01 0.01 0.01 0.01 0.02 0.02 0.04 0.12 0.10 0.07 0.07 0.06 0.03 0.02 0.03 0.03 0.03 0.03 0.04 0.07 0.09 0.07 0.06 0.07 0.07 0.06 0.05 0.04 0.05 0.06 0.05 0.06 0.08 0.08 0.07 0.07
0.03 0.03 0.03 0.03 0.03 0.03 0.02 0.01 0.02 0.04 0.04 0.03 0.02 0.03 0.05 0.15 0.12 0.09 0.05 0.04 0.04 0.03 0.03 0.02 0.03 0.05 0.08 0.10 0.10 0.09 0.06 0.06 0.07 0.06 0.05 0.05 0.04 0.06 0.07 0.08 0.08 0.08 0.08 0.07
0.03 0.03 0.03 0.04 0.04 0.04 0.05 0.04 0.03 0.05 0.06 0.04 0.04 0.03 0.06 0.12 0.14 0.13 0.06 0.05 0.05 0.04 0.04 0.04 0.04 0.05 0.06 0.07 0.08 0.07 0.05 0.04 0.06 0.06 0.06 0.05 0.04 0.05 0.06 0.06 0.08 0.07 0.08 0.08
0.04 0.03 0.03 0.03 0.03 0.04 0.05 0.07 0.05 0.05 0.11 0.06 0.05 0.05 0.08 0.11 0.15 0.15 0.09 0.06 0.04 0.04 0.04 0.05 0.07 0.08 0.08 0.07 0.07 0.08 0.07 0.05 0.06 0.06 0.06 0.06 0.06 0.05 0.05 0.05 0.08 0.09 0.08 0.09
0.07 0.05 0.05 0.05 0.05 0.04 0.05 0.06 0.06 0.09 0.12 0.09 0.06 0.05 0.08 0.09 0.08 0.09 0.10 0.08 0.05 0.05 0.05 0.06 0.08 0.11 0.09 0.09 0.09 0.11 0.14 0.12 0.08 0.07 0.07 0.08 0.08 0.09 0.09 0.07 0.07 0.07 0.07 0.08
0.10 0.07 0.06 0.07 0.08 0.07 0.07 0.08 0.09 0.10 0.18 0.14 0.10 0.08 0.07 0.06 0.06 0.07 0.09 0.09 0.08 0.08 0.07 0.05 0.05 0.06 0.09 0.12 0.14 0.16 0.13 0.13 0.11 0.09 0.09 0.09 0.10 0.10 0.11 0.11 0.10 0.09 0.10 0.10
0.14 0.11 0.08 0.08 0.09 0.10 0.10 0.11 0.11 0.11 0.19 0.20 0.14 0.12 0.07 0.05 0.05 0.05 0.06 0.07 0.08 0.07 0.06 0.05 0.04 0.06 0.13 0.17 0.15 0.17 0.15 0.12 0.11 0.08 0.07 0.07 0.09 0.10 0.09 0.09 0.09 0.09 0.09 0.09
0.17 0.14 0.12 0.13 0.14 0.12 0.13 0.14 0.13 0.13 0.14 0.15 0.13 0.09 0.06 0.06 0.06 0.04 0.04 0.05 0.06 0.07 0.06 0.05 0.05 0.06 0.11 0.18 0.18 0.17 0.16 0.13 0.10 0.11 0.09 0.09 0.12 0.11 0.10 0.09 0.08 0.08 0.08 0.09
0.19 0.21 0.22 0.20 0.15 0.13 0.16 0.18 0.11 0.09 0.12 0.14 0.09 0.05 0.05 0.06 0.05 0.05 0.06 0.05 0.03 0.04 0.04 0.05 0.05 0.05 0.07 0.09 0.15 0.20 0.20 0.17 0.14 0.13 0.12 0.09 0.10 0.11 0.11 0.09 0.10 0.10 0.11 0.10
0.15 0.21 0.25 0.24 0.18 0.16 0.15 0.12 0.08 0.11 0.16 0.15 0.14 0.11 0.07 0.07 0.06 0.05 0.05 0.04 0.02 0.02 0.03 0.06 0.07 0.06 0.06 0.08 0.11 0.15 0.19 0.18 0.15 0.11 0.11 0.11 0.10 0.10 0.09 0.10 0.11 0.12 0.12 0.11
MSLP
1007.11 1007.94 1008.50 1008.76 1008.74 1008.50 1008.12 1007.69 1007.27 1006.91 1006.64 1006.46 1006.36 1006.32 1006.33 1006.38 1006.45 1006.55 1006.66 1006.78 1006.89 1006.98 1007.03 1007.03 1007.01 1007.00 1007.02 1007.13 1007.37 1007.76 1008.31 1009.01 1009.81 1010.64 1011.46 1012.19 1012.80 1013.27 1013.60 1013.83 1014.00 1014.16 1014.36 1014.62
1007.43 1008.07 1008.41 1008.46 1008.30 1008.00 1007.65 1007.33 1007.09 1006.94 1006.86 1006.83 1006.82 1006.79 1006.75 1006.70 1006.66 1006.64 1006.66 1006.72 1006.80 1006.88 1006.93 1006.94 1006.90 1006.85 1006.82 1006.87 1007.07 1007.44 1008.01 1008.77 1009.65 1010.60 1011.52 1012.34 1013.01 1013.50 1013.81 1014.00 1014.11 1014.22 1014.39 1014.64
1007.43 1007.87 1008.00 1007.89 1007.63 1007.33 1007.08 1006.95 1006.94 1007.04 1007.20 1007.34 1007.42 1007.41 1007.30 1007.12 1006.92 1006.74 1006.63 1006.59 1006.61 1006.67 1006.73 1006.75 1006.72 1006.67 1006.63 1006.67 1006.84 1007.22 1007.81 1008.62 1009.58 1010.60 1011.61 1012.51 1013.23 1013.74 1014.04 1014.20 1014.28 1014.35 1014.49 1014.73
1007.12 1007.36 1007.32 1007.09 1006.81 1006.59 1006.52 1006.64 1006.93 1007.33 1007.74 1008.07 1008.24 1008.22 1008.01 1007.67 1007.27 1006.89 1006.59 1006.42 1006.35 1006.37 1006.43 1006.48 1006.48 1006.46 1006.44 1006.50 1006.68 1007.06 1007.68 1008.51 1009.51 1010.60 1011.66 1012.61 1013.37 1013.90 1014.21 1014.37 1014.43 1014.49 1014.61 1014.84
1006.56 1006.62 1006.46 1006.19 1005.96 1005.90 1006.07 1006.50 1007.13 1007.84 1008.52 1009.03 1009.27 1009.22 1008.89 1008.35 1007.72 1007.10 1006.59 1006.24 1006.07 1006.03 1006.08 1006.15 1006.21 1006.24 1006.27 1006.36 1006.57 1006.96 1007.58 1008.42 1009.42 1010.52 1011.61 1012.58 1013.36 1013.92 1014.26 1014.42 1014.50 1014.56 1014.69 1014.92
1005.84 1005.77 1005.54 1005.30 1005.19 1005.34 1005.80 1006.56 1007.53 1008.56 1009.48 1010.14 1010.44 1010.34 1009.87 1009.12 1008.24 1007.37 1006.63 1006.10 1005.80 1005.70 1005.73 1005.84 1005.95 1006.05 1006.15 1006.28 1006.51 1006.90 1007.51 1008.32 1009.30 1010.37 1011.44 1012.41 1013.20 1013.78 1014.15 1014.35 1014.46 1014.55 1014.69 1014.94
1005.07 1004.91 1004.67 1004.50 1004.56 1004.94 1005.70 1006.78 1008.06 1009.36 1010.48 1011.26 1011.59 1011.42 1010.81 1009.86 1008.75 1007.65 1006.70 1006.00 1005.58 1005.42 1005.44 1005.59 1005.76 1005.93 1006.09 1006.27 1006.52 1006.91 1007.47 1008.23 1009.14 1010.15 1011.17 1012.11 1012.90 1013.50 1013.90 1014.15 1014.30 1014.44 1014.62 1014.89
1004.35 1004.13 1003.91 1003.85 1004.07 1004.69 1005.70 1007.04 1008.57 1010.06 1011.32 1012.17 1012.50 1012.26 1011.53 1010.42 1009.14 1007.86 1006.75 1005.93 1005.42 1005.22 1005.25 1005.43 1005.67 1005.91 1006.13 1006.35 1006.62 1006.98 1007.50 1008.18 1009.00 1009.92 1010.87 1011.75 1012.52 1013.13 1013.56 1013.86 1014.08 1014.27 1014.50 1014.80
1003.73 1003.48 1003.29 1003.33 1003.70 1004.49 1005.69 1007.20 1008.86 1010.46 1011.78 1012.65 1012.95 1012.66 1011.84 1010.65 1009.27 1007.90 1006.72 1005.84 1005.31 1005.10 1005.16 1005.39 1005.69 1006.00 1006.28 1006.54 1006.81 1007.15 1007.61 1008.20 1008.92 1009.74 1010.59 1011.41 1012.14 1012.74 1013.21 1013.56 1013.83 1014.09 1014.37 1014.71
1003.23 1002.96 1002.81 1002.92 1003.38 1004.26 1005.54 1007.10 1008.79 1010.38 1011.67 1012.50 1012.76 1012.44 1011.62 1010.42 1009.05 1007.70 1006.54 1005.70 1005.20 1005.04 1005.16 1005.45 1005.81 1006.18 1006.51 1006.80 1007.08 1007.40 1007.79 1008.30 1008.92 1009.62 1010.38 1011.12 1011.81 1012.40 1012.89 1013.28 1013.61 1013.93 1014.26 1014.63
1002.86 1002.58 1002.44 1002.57 1003.06 1003.93 1005.16 1006.65 1008.24 1009.71 1010.90 1011.65 1011.87 1011.55 1010.77 1009.66 1008.41 1007.19 1006.17 1005.45 1005.06 1004.99 1005.19 1005.55 1005.97 1006.40 1006.77 1007.09 1007.38 1007.67 1008.02 1008.45 1008.98 1009.59 1010.26 1010.93 1011.56 1012.14 1012.63 1013.06 1013.44 1013.81 1014.18 1014.58
1002.60 1002.30 1002.16 1002.27 1002.71 1003.48 1004.57 1005.87 1007.25 1008.52 1009.53 1010.16 1010.34 1010.05 1009.38 1008.44 1007.40 1006.41 1005.60 1005.07 1004.84 1004.90 1005.18 1005.61 1006.10 1006.56 1006.97 1007.32 1007.62 1007.91 1008.22 1008.61 1009.07 1009.61 1010.19 1010.80 1011.39 1011.94 1012.44 1012.89 1013.31 1013.71 1014.12 1014.54
1002.45 1002.14 1001.98 1002.03 1002.36 1002.97 1003.83 1004.86 1005.95 1006.95 1007.74 1008.23 1008.36 1008.13 1007.61 1006.89 1006.11 1005.40 1004.86 1004.56 1004.52 1004.71 1005.09 1005.58 1006.10 1006.60 1007.03 1007.40 1007.72 1008.02 1008.34 1008.70 1009.12 1009.61 1010.14 1010.69 1011.24 1011.77 1012.27 1012.73 1013.17 1013.61 1014.04 1014.49
1002.41 1002.10 1001.91 1001.89 1002.07 1002.47 1003.06 1003.78 1004.54 1005.24 1005.79 1006.12 1006.20 1006.03 1005.67 1005.20 1004.70 1004.29 1004.02 1003.95 1004.09 1004.41 1004.86 1005.38 1005.92 1006.43 1006.89 1007.28 1007.63 1007.95 1008.29 1008.66 1009.07 1009.54 1010.04 1010.56 1011.08 1011.59 1012.08 1012.55 1013.01 1013.47 1013.92 1014.38
1002.50 1002.20 1001.98 1001.88 1001.92 1002.11 1002.42 1002.81 1003.24 1003.63 1003.93 1004.10 1004.12 1004.01 1003.80 1003.55 1003.33 1003.18 1003.16 1003.30 1003.58 1003.98 1004.47 1005.01 1005.54 1006.05 1006.51 1006.92 1007.31 1007.68 1008.06 1008.46 1008.90 1009.36 1009.86 1010.36 1010.86 1011.36 1011.85 1012.33 1012.80 1013.27 1013.74 1014.22
1002.71 1002.43 1002.20 1002.04 1001.95 1001.94 1001.99 1002.09 1002.21 1002.31 1002.38 1002.40 1002.36 1002.29 1002.20 1002.13 1002.12 1002.19 1002.37 1002.64 1003.02 1003.46 1003.95 1004.47 1004.97 1005.46 1005.91 1006.35 1006.78 1007.21 1007.65 1008.11 1008.59 1009.09 1009.59 1010.10 1010.60 1011.09 1011.57 1012.06 1012.54 1013.03 1013.51 1014.00
1003.04 1002.78 1002.55 1002.34 1002.15 1001.98 1001.83 1001.68 1001.54 1001.40 1001.27 1001.15 1001.05 1000.99 1000.98 1001.04 1001.18 1001.40 1001.69 1002.05 1002.46 1002.89 1003.35 1003.81 1004.26 1004.71 1005.17 1005.63 1006.11 1006.60 1007.12 1007.66 1008.20 1008.74 1009.27 1009.79 1010.30 1010.79 1011.27 1011.76 1012.25 1012.75 1013.26 1013.75
1003.43 1003.19 1002.96 1002.72 1002.47 1002.18 1001.87 1001.54 1001.21 1000.88 1000.60 1000.37 1000.22 1000.15 1000.19 1000.33 1000.55 1000.84 1001.18 1001.56 1001.95 1002.34 1002.72 1003.11 1003.50 1003.91 1004.35 1004.84 1005.37 1005.93 1006.53 1007.15 1007.76 1008.36 1008.93 1009.48 1009.99 1010.49 1010.98 1011.47 1011.97 1012.48 1013.00 1013.50
1003.82 1003.58 1003.34 1003.09 1002.78 1002.43 1002.02 1001.57 1001.11 1000.67 1000.28 999.98 999.78 999.72 999.77 999.94 1000.20 1000.51 1000.86 1001.20 1001.53 1001.84 1002.14 1002.44 1002.77 1003.13 1003.56 1004.06 1004.63 1005.26 1005.94 1006.63 1007.32 1007.98 1008.59 1009.17 1009.71 1010.22 1010.72 1011.22 1011.72 1012.24 1012.76 1013.26
1004.13 1003.87 1003.61 1003.33 1002.99 1002.60 1002.13 1001.62 1001.10 1000.60 1000.16 999.83 999.62 999.56 999.63 999.81 1000.07 1000.38 1000.69 1000.98 1001.24 1001.46 1001.66 1001.87 1002.12 1002.44 1002.84 1003.34 1003.95 1004.63 1005.36 1006.12 1006.87 1007.59 1008.26 1008.87 1009.44 1009.97 1010.48 1010.99 1011.50 1012.02 1012.54 1013.04
1004.29 1003.98 1003.68 1003.37 1003.01 1002.59 1002.11 1001.59 1001.05 1000.55 1000.12 999.80 999.62 999.57 999.66 999.86 1000.11 1000.40 1000.67 1000.90 1001.07 1001.21 1001.31 1001.43 1001.60 1001.85 1002.22 1002.71 1003.31 1004.02 1004.79 1005.60 1006.40 1007.16 1007.88 1008.53 1009.14 1009.70 1010.23 1010.75 1011.28 1011.80 1012.31 1012.81
1004.28 1003.90 1003.55 1003.19 1002.81 1002.39 1001.91 1001.42 1000.91 1000.46 1000.07 999.80 999.67 999.67 999.79 1000.01 1000.27 1000.54 1000.77 1000.94 1001.04 1001.08 1001.10 1001.12 1001.20 1001.38 1001.68 1002.13 1002.71 1003.40 1004.18 1005.01 1005.84 1006.65 1007.41 1008.11 1008.76 1009.36 1009.93 1010.48 1011.02 1011.55 1012.07 1012.55
1004.10 1003.64 1003.23 1002.84 1002.44 1002.02 1001.58 1001.13 1000.70 1000.31 1000.01 999.82 999.76 999.83 1000.00 1000.24 1000.51 1000.77 1000.97 1001.09 1001.12 1001.08 1001.00 1000.93 1000.91 1000.99 1001.20 1001.57 1002.09 1002.74 1003.50 1004.32 1005.17 1006.00 1006.80 1007.56 1008.26 1008.92 1009.54 1010.13 1010.70 1011.26 1011.78 1012.27
1003.76 1003.25 1002.80 1002.39 1001.99 1001.60 1001.21 1000.83 1000.49 1000.19 999.99 999.89 999.92 1000.05 1000.28 1000.56 1000.84 1001.09 1001.26 1001.33 1001.30 1001.18 1001.01 1000.83 1000.69 1000.66 1000.76 1001.02 1001.44 1002.02 1002.73 1003.52 1004.36 1005.22 1006.06 1006.87 1007.64 1008.37 1009.06 1009.71 1010.33 1010.92 1011.47 1011.97
1003.34 1002.82 1002.36 1001.96 1001.60 1001.26 1000.94 1000.65 1000.40 1000.21 1000.10 1000.10 1000.20 1000.39 1000.66 1000.97 1001.26 1001.49 1001.63 1001.65 1001.56 1001.36 1001.09 1000.80 1000.55 1000.39 1000.35 1000.49 1000.80 1001.28 1001.91 1002.66 1003.48 1004.35 1005.24 1006.11 1006.95 1007.76 1008.53 1009.26 1009.95 1010.59 1011.18 1011.70
1002.89 1002.41 1002.00 1001.66 1001.37 1001.12 1000.89 1000.70 1000.54 1000.45 1000.43 1000.50 1000.66 1000.89 1001.18 1001.49 1001.77 1001.97 1002.07 1002.05 1001.89 1001.61 1001.25 1000.86 1000.49 1000.20 1000.04 1000.04 1000.23 1000.60 1001.15 1001.84 1002.65 1003.53 1004.45 1005.38 1006.30 1007.19 1008.05 1008.86 1009.63 1010.33 1010.98 1011.55
Thickness
5777 5762 5755 5763 5768 5769 5770 5767 5767 5783 5804 5799 5793 5792 5800 5805 5801 5795 5794 5793 5790 5789 5789 5786 5784 5780 5776 5771 5768 5765 5762 5759 5756 5754 5751 5748 5745 5746 5746 5747 5748 5747 5747 5746
5757 5754 5770 5776 5777 5774 5770 5763 5767 5783 5802 5798 5789 5789 5798 5802 5802 5800 5796 5793 5790 5784 5780 5779 5778 5775 5772 5768 5766 5763 5761 5758 5757 5755 5753 5750 5746 5745 5745 5745 5745 5746 5745 5745
5748 5764 5777 5773 5769 5766 5766 5763 5767 5773 5790 5796 5786 5774 5783 5794 5800 5799 5799 5796 5793 5788 5781 5777 5775 5773 5770 5766 5764 5763 5760 5758 5756 5754 5750 5747 5743 5740 5739 5740 5741 5743 5743 5743
5752 5769 5772 5767 5766 5768 5758 5781 5782 5780 5769 5758 5773 5744 5766 5780 5785 5789 5791 5791 5789 5788 5783 5778 5775 5771 5769 5767 5765 5762 5759 5756 5755 5753 5749 5745 5741 5737 5738 5739 5740 5741 5741 5742
5751 5767 5765 5763 5773 5776 5772 5790 5785 5781 5767 5753 5757 5745 5752 5771 5771 5780 5788 5791 5790 5788 5783 5778 5776 5773 5770 5767 5763 5760 5756 5754 5752 5751 5748 5745 5741 5739 5738 5738 5737 5737 5739 5740
5757 5774 5774 5775 5785 5788 5788 5781 5774 5762 5747 5729 5744 5740 5741 5760 5772 5781 5788 5790 5790 5788 5784 5779 5776 5773 5768 5765 5761 5758 5754 5751 5750 5748 5746 5744 5740 5738 5736 5735 5734 5735 5736 5737
5742 5759 5775 5784 5772 5780 5776 5748 5723 5721 5712 5718 5743 5741 5743 5774 5787 5789 5788 5789 5789 5786 5782 5777 5772 5768 5765 5762 5759 5757 5753 5750 5749 5747 5745 5743 5741 5739 5737 5736 5735 5734 5733 5735
5719 5730 5764 5777 5772 5764 5765 5749 5718 5707 5707 5716 5737 5733 5753 5782 5791 5794 5792 5789 5787 5782 5780 5777 5773 5769 5766 5763 5760 5756 5753 5750 5749 5746 5744 5743 5741 5739 5738 5737 5736 5735 5735 5735
5722 5731 5772 5785 5791 5780 5762 5748 5751 5727 5720 5713 5720 5737 5759 5776 5779 5783 5784 5783 5780 5780 5779 5776 5773 5769 5766 5763 5760 5757 5754 5751 5749 5747 5744 5741 5740 5739 5738 5737 5736 5735 5735 5735
5736 5732 5760 5781 5787 5784 5776 5764 5737 5720 5703 5700 5714 5726 5733 5753 5762 5771 5774 5775 5776 5778 5777 5775 5773 5769 5767 5765 5762 5758 5755 5752 5750 5747 5744 5742 5740 5738 5737 5735 5734 5734 5734 5734
5742 5728 5743 5761 5760 5758 5763 5755 5740 5722 5719 5702 5698 5716 5757 5757 5763 5765 5770 5773 5774 5776 5776 5774 5772 5770 5766 5762 5759 5756 5754 5751 5748 5746 5744 5742 5740 5738 5736 5734 5734 5734 5733 5732
5742 5726 5722 5744 5767 5779 5768 5756 5740 5720 5713 5713 5706 5721 5767 5765 5767 5767 5769 5772 5774 5774 5774 5772 5769 5765 5762 5758 5756 5754 5752 5750 5748 5746 5743 5741 5739 5737 5735 5733 5733 5733 5732 5732
5739 5721 5709 5720 5737 5755 5756 5756 5748 5735 5720 5710 5706 5724 5761 5762 5763 5765 5766 5768 5770 5770 5769 5767 5764 5761 5759 5758 5756 5754 5752 5750 5749 5746 5742 5739 5737 5736 5734 5734 5733 5732 5732 5731
5748 5721 5713 5709 5720 5739 5743 5749 5749 5734 5714 5714 5720 5730 5745 5752 5756 5760 5763 5765 5766 5766 5765 5762 5761 5760 5758 5757 5756 5754 5752 5751 5748 5745 5742 5739 5737 5736 5736 5734 5733 5733 5732 5730
5737 5718 5724 5732 5744 5749 5747 5748 5748 5740 5734 5725 5730 5734 5742 5751 5756 5759 5761 5760 5762 5762 5761 5761 5759 5759 5757 5756 5755 5754 5752 5750 5748 5744 5741 5739 5738 5737 5736 5735 5734 5733 5731 5730
5723 5716 5720 5724 5739 5743 5741 5747 5749 5746 5744 5740 5738 5735 5749 5753 5755 5755 5756 5757 5757 5758 5760 5760 5760 5758 5757 5756 5755 5753 5751 5750 5747 5744 5741 5739 5738 5736 5736 5735 5733 5731 5729 5728
5708 5709 5703 5704 5724 5728 5717 5734 5739 5741 5745 5743 5731 5735 5744 5742 5746 5749 5752 5753 5754 5756 5758 5758 5758 5758 5758 5757 5755 5752 5750 5748 5745 5742 5741 5739 5738 5736 5735 5734 5731 5730 5728 5726
5701 5699 5693 5694 5702 5691 5714 5739 5743 5738 5738 5742 5740 5740 5742 5741 5743 5747 5751 5751 5751 5753 5755 5756 5757 5757 5757 5756 5754 5752 5749 5746 5743 5741 5740 5739 5737 5736 5734 5732 5730 5729 5727 5725
5702 5696 5687 5680 5682 5694 5716 5728 5731 5725 5720 5733 5733 5734 5736 5738 5739 5739 5746 5748 5749 5751 5752 5754 5756 5756 5755 5753 5752 5749 5746 5744 5741 5740 5739 5739 5737 5734 5732 5730 5729 5728 5726 5724
5695 5695 5684 5679 5679 5679 5703 5725 5734 5727 5707 5726 5729 5729 5729 5730 5718 5724 5739 5743 5745 5747 5749 5751 5753 5753 5751 5750 5749 5746 5744 5742 5740 5741 5740 5739 5737 5735 5732 5731 5729 5728 5726 5723
5675 5677 5676 5674 5676 5685 5708 5721 5726 5700 5701 5721 5723 5724 5724 5720 5720 5725 5732 5736 5739 5740 5743 5747 5747 5747 5748 5748 5747 5744 5742 5742 5743 5742 5740 5738 5736 5734 5732 5729 5728 5726 5724 5721
5663 5664 5666 5667 5667 5675 5705 5710 5703 5701 5712 5716 5717 5718 5718 5718 5720 5722 5724 5728 5730 5731 5735 5739 5740 5741 5744 5745 5745 5743 5741 5743 5743 5741 5738 5736 5735 5733 5731 5727 5725 5723 5721 5717
5656 5661 5663 5667 5671 5685 5697 5700 5703 5707 5706 5708 5709 5712 5713 5712 5713 5715 5717 5719 5721 5724 5727 5730 5732 5735 5738 5740 5740 5739 5739 5740 5739 5736 5734 5733 5731 5729 5728 5724 5721 5718 5716 5713
5653 5661 5662 5665 5671 5681 5689 5693 5697 5700 5701 5703 5704 5706 5707 5706 5706 5708 5709 5711 5713 5716 5718 5721 5724 5727 5729 5733 5735 5735 5736 5736 5734 5731 5730 5728 5726 5724 5723 5720 5718 5715 5712 5709
5646 5653 5656 5658 5665 5673 5679 5683 5687 5690 5692 5693 5695 5697 5698 5698 5699 5700 5701 5702 5704 5707 5710 5713 5716 5719 5722 5726 5727 5730 5731 5730 5727 5725 5723 5722 5721 5719 5715 5712 5709 5709 5708 5707
5641 5645 5648 5650 5658 5662 5667 5676 5681 5681 5681 5682 5684 5685 5688 5690 5690 5691 5691 5693 5697 5699 5702 5705 5708 5711 5715 5718 5720 5723 5725 5724 5722 5719 5717 5715 5713 5711 5708 5705 5700 5698 5699 5698